This is the latest recevied weather packets stored in our database for station/object W9KHP-1. If no packets are shown the sender has not sent any weather packets the latest 10 day(s).
| Time | Temp. | Humidity | Pressure | Rain* | Wind** | Luminosity | Snow |
|---|---|---|---|---|---|---|---|
| 1778088575 | 15.56° C | 64% | 1016.8 hPa | 0 mm | - | 579 W/m² | - |
| 1778088272 | 15° C | 63% | 1017.1 hPa | 0 mm | - | 465 W/m² | - |
| 1778087969 | 15° C | 69% | 1017.1 hPa | 0 mm | - | 443 W/m² | - |
| 1778087666 | 15° C | 64% | 1017.2 hPa | 0 mm | - | 403 W/m² | - |
| 1778087364 | 15° C | 64% | 1017.3 hPa | 0 mm | - | 445 W/m² | - |
| 1778087060 | 14.44° C | 70% | 1017.2 hPa | 0 mm | - | 450 W/m² | - |
| 1778086759 | 14.44° C | 71% | 1017.4 hPa | 0 mm | - | 363 W/m² | - |
| 1778086457 | 13.89° C | 71% | 1017.6 hPa | 0 mm | - | 383 W/m² | - |
| 1778086153 | 13.89° C | 74% | 1017.3 hPa | 0 mm | - | 405 W/m² | - |
| 1778085849 | 14.44° C | 70% | 1017.4 hPa | 0 mm | - | 352 W/m² | - |
| 1778085547 | 14.44° C | 73% | 1017.3 hPa | 0 mm | - | 584 W/m² | - |
| 1778085241 | 14.44° C | 73% | 1017.4 hPa | 0 mm | - | 484 W/m² | - |
| 1778084937 | 15.56° C | 72% | 1017.3 hPa | 0 mm | - | 424 W/m² | - |
| 1778084635 | 14.44° C | 79% | 1017.4 hPa | 0 mm | - | 673 W/m² | - |
| 1778084332 | 13.89° C | 76% | 1017.4 hPa | 0 mm | - | 430 W/m² | - |
| 1778084030 | 14.44° C | 73% | 1017.6 hPa | 0 mm | - | 438 W/m² | - |
| 1778083727 | 13.89° C | 70% | 1017.4 hPa | 0 mm | - | 357 W/m² | - |
| 1778083424 | 13.89° C | 75% | 1017.2 hPa | 0 mm | - | 422 W/m² | - |
| 1778083122 | 13.33° C | 77% | 1017.4 hPa | 0 mm | - | 337 W/m² | - |
| 1778082818 | 13.89° C | 78% | 1017.6 hPa | 0 mm | - | 348 W/m² | - |
| 1778081691 | 13.33° C | 80% | 1017.5 hPa | 0 mm | - | 331 W/m² | - |
| 1778081388 | 12.78° C | 82% | 1017.6 hPa | 0 mm | - | 288 W/m² | - |
| 1778081085 | 12.78° C | 82% | 1017.5 hPa | 0 mm | - | 223 W/m² | - |
| 1778080783 | 12.78° C | 82% | 1017.3 hPa | 0 mm | - | 313 W/m² | - |
| 1778080480 | 12.22° C | 83% | 1017.5 hPa | 0 mm | - | 274 W/m² | - |
* Rain latest hour (hover to see other rain measurements)
** Current wind speed in m/s (hover to see current wind gust speed)